Terminal Aerodrome Forecast
Issued by NWS Duluth, MN

Home | Current Version | Previous Version | Text Only | Print | Product List | Glossary On
Versions: 1 2 3 4 5 6 7 8 9 10 11 12 13 14 15 16 17 18 19 20 21 22 23 24 25 26 27 28 29 30
000
FTUS43 KDLH 170600 AAA
TAFDLH
TAF AMD
KDLH 170657Z 1707/1806 26006KT P6SM SCT100
      TEMPO 1707/1708 05008KT
     FM171600 34006KT P6SM SCT100
     FM171900 08013G22KT P6SM VCSH SCT010 OVC025
     FM180100 08012KT P6SM SCT025 BKN035=

USA.gov is the U.S. government's official web portal to all federal, state and local government web resources and services.